Location: Ecklingerode
(51.5036°N, 10.3122°E)
Time: 07:02:13
(UTC+00:00)

Cosmos 2369 - Pass Details

Date: 29 October 2020
Orbit: 841 x 854 km, 71.0° (Epoch: 01 December)

Event Time Altitude Azimuth Distance (km) Brightness Sun altitude
Rises 18:28:27 0° 210° (SSW) 3,411 7.1 -24.1°
Reaches altitude 10° 18:30:54 10° 212° (SSW) 2,477 6.4 -24.5°
Maximum altitude 18:36:36 83° 301° (WNW) 863 3.7 -25.3°
Enters shadow 18:39:18 33° 26° (NNE) 1,396 4.6 -25.8°
